Location: Newark
(36.1358°N, 115.1208°W)
Time: 21:22:35
(UTC+00:00)

Vanguard 1 Rocket - Pass Details

Date: 24 February 2020
Orbit: 650 x 4226 km, 34.3° (Epoch: 09 April)

Event Time Altitude Azimuth Distance (km) Brightness Sun altitude
Rises 07:35:40 0° 224° (SW) 6,872 - -63.2°
Reaches altitude 10° 07:41:28 10° 217° (SW) 5,234 - -63.3°
Maximum altitude 07:53:04 35° 159° (SSE) 2,359 - -63.5°
Drops below altitude 10° 07:59:41 10° 95° (E) 2,975 - -63.4°
Sets 08:02:01 0° 85° (E) 3,658 - -63.4°
